Regional Weather Roundup
Issued by NWS Upton, NY

Current Version | Previous Version | Graphics & Text | Print | Product List | Glossary Off
Versions: 1 2 3 4 5 6 7 8 9 10 11 12 13 14 15 16 17 18 19 20 21 22 23 24 25 26 27 28

000
ASUS41 KOKX 191505
RWROKX

REGIONAL WEATHER ROUNDUP
NATIONAL WEATHER SERVICE NEW YORK NY
1100 AM EDT SAT APR 19 2014

NOTE: "FAIR" INDICATES FEW OR NO CLOUDS BELOW 12,000 FEET WITH NO
SIGNIFICANT WEATHER AND/OR OBSTRUCTIONS TO VISIBILITY.

NYZ071-072-176-178-NJZ106-104-191600-
NEW YORK CITY METRO AREA


CITY           SKY/WX    TMP DP  RH WIND       PRES   REMARKS
CENTRAL PARK   SUNNY     59  25  27 VRB7      30.29S
LAGUARDIA APRT PTSUNNY   57  29  34 NW8       30.27R
KENNEDY INTL   PTSUNNY   60  29  30 N14       30.28R
NEWARK/LIBERTY PTSUNNY   61  28  28 NW10      30.28R
TETERBORO      SUNNY     61  27  27 NW15G22   30.26S
$$

NYZ177-179-078>081-191600-
LONG ISLAND NEW YORK

CITY           SKY/WX    TMP DP  RH WIND       PRES   REMARKS
FARMINGDALE    MOSUNNY   57  33  40 NW8       30.27R
ISLIP          PTSUNNY   57  32  38 N14G21    30.25R
SHIRLEY        MOSUNNY   58  31  35 N17G24    30.27R
WESTHAMPTON    MOSUNNY   56  32  40 NW15G22   30.26S
MONTAUK POINT    N/A     50  39  66 W9        30.24F
$$

NYZ052-065-067-191600-
HUDSON VALLEY

CITY           SKY/WX    TMP DP  RH WIND       PRES   REMARKS
WHITE PLAINS   SUNNY     58  28  32 N16G23    30.25S
NEWBURGH       SUNNY     55  30  38 W10       30.29S
MONTGOMERY     SUNNY     57  28  33 NW9G20    30.27F
POUGHKEEPSIE   SUNNY     58  31  35 NW8       30.27S
ALBANY         MOSUNNY   52  33  48 VRB5      30.30R
$$

NJZ001-105-106-008-010-013-015-019>022-104-191600-
NEW JERSEY

CITY           SKY/WX    TMP DP  RH WIND       PRES   REMARKS
NEWARK/LIBERTY PTSUNNY   61  28  28 NW10      30.28R
TETERBORO      SUNNY     61  27  27 NW15G22   30.26S
CALDWELL       SUNNY     59  24  26 VRB6      30.29R
MORRISTOWN     SUNNY     59  25  27 N13G22    30.29
SOMERVILLE     SUNNY     58  28  32 VRB6      30.27S
LINDEN         FAIR      60  31  32 N8        30.30S
SUSSEX         SUNNY     58  29  33 N12G21    30.30R
ANDOVER          N/A     55  25  31 N10       30.30R
TRENTON        SUNNY     59  31  34 N9        30.29R
MILLVILLE      PTSUNNY   56  40  55 N8        30.29F
ATLANTIC CITY  PTSUNNY   57  40  52 N9        30.29F
WRIGHTSTOWN    MOSUNNY   58  35  42 N9        30.27F
TOMS RIVER     PTSUNNY   57  34  41 N8        30.28F
BELMAR         PTSUNNY   57  34  41 N12G18    30.28S
$$

PAZ047>061-062-071-191600-
EASTERN PENNSYLVANIA

CITY           SKY/WX    TMP DP  RH WIND       PRES   REMARKS
PHILADELPHIA   PTSUNNY   60  34  37 N7        30.30F
ALLENTOWN      SUNNY     59  29  31 N10       30.30S
SCRANTON       MOSUNNY   51  29  42 NW13G20   30.33R
$$

CTZ002-004>006-009-010-012-RIZ004-006-007-MAZ004-011-015-191600-
SOUTHERN NEW ENGLAND
 IN CT

CITY           SKY/WX    TMP DP  RH WIND       PRES   REMARKS
BRADLEY INTL   MOSUNNY   56  30  37 NW13      30.24F
HARTFORD       SUNNY     57  30  35 NW14G23   30.25S
DANBURY        SUNNY     55  27  34 NW12G22   30.27S
WTRBRY/OXFORD  MOSUNNY   54  30  40 N12G25    30.28R
BRIDGEPORT     SUNNY     60  29  30 N10       30.25
MERIDEN        SUNNY     58  27  30 NW15G25   30.25R
NEW HAVEN      SUNNY     61  27  27 NW8G18    30.24F
CHESTER        FAIR      55  30  38 N18G25    30.23F
GROTON         SUNNY     59  28  30 N18G25    30.22F
WILLIMANTIC    SUNNY     56  29  35 NW14G21   30.23S

 IN RI

CITY           SKY/WX    TMP DP  RH WIND       PRES   REMARKS
PROVIDENCE     MOSUNNY   58  28  32 NW12      30.19F
BLOCK ISLAND   SUNNY     48  37  66 W13       30.22F
WESTERLY       SUNNY     58  27  30 NW10G17   30.22F

 IN MA

CITY           SKY/WX    TMP DP  RH WIND       PRES   REMARKS
BOSTON         SUNNY     57  33  40 NW16G26   30.20R
WORCESTER      SUNNY     51  30  44 NW16      30.20S
WESTFIELD      SUNNY     57  30  35 NW15G23   30.24F
PROVINCETOWN   SUNNY     48  36  61 MISG      30.20R
NANTUCKET      SUNNY     52  40  63 W14       30.19S
$$

ANZ330-335-338-340-345-350-353-355-191600-
COASTAL MARINE OBSERVATIONS


STATION/POSITION TIME  SKY/WX   TEMP    WIND        PRES    VSBY  WAVE
                                AIR SEA DIR/SP/G                  HT/PER
                 (UTC)          (F)     (DEG/KT/KT) (MB)    (MI)  (FT/S)
NY HARB ENTRANCE 1500            45 43  110/  6/  8 1025.4
4S FIRE IS       1400               45                N/A           4/11
23SW MTP         1500            43 42  260/ 10/ 14 1024.0          4/10
HUDSON CANYON    1400            44 44  290/  6/  8 1025.1          5/10
EXECUTION ROCKS  1500            54 42  340/ 10/ 16   N/A
WESTERN LI SOUND 1500            47     190/  6/  8   N/A           0
CENTRAL LI SOUND 1400            42 42  260/  8/ 10   N/A           1
EASTERN LI SOUND NOT AVBL
ROBBINS REEF     1500            56     340/ 10/ 13   N/A
$$


>>>>>>>>>>>>>>>>>>>>>>>>>>>> KEY <<<<<<<<<<<<<<<<<<<<<<<<<<<
>                                                          <
>     SKY/WX - SKY CONDITION/PRESENT WEATHER               <
>     TMP    - TEMPERATURE IN FAHRENHEIT                   <
>     DP     - DEWPOINT IN FAHRENHEIT                      <
>     RH     - RELATIVE HUMIDITY IN PERCENT                <
>     WIND   - DIRECTION AND SPEED IN MPH                  <
>     PRES   - MEAN SEA LEVEL PRESSURE IN INCHES OF HG     <
>     WCI    - WIND CHILL INDEX                            <
>     VSB    - VISIBILITY IN MILES                         <
>     HX     - HEAT INDEX                                  <
>     TC     - TEMPERATURE IN CELSIUS                      <
>     VRB    - VARIABLE WIND DIRECTION                     <
>                                                          <
>>>>>>>>>>>>>>>>>>>>>>>>>>>> KEY <<<<<<<<<<<<<<<<<<<<<<<<<<<





USA.gov is the U.S. government's official web portal to all federal, state and local government web resources and services.